Location: Coopersdale
(40.3556°N, 78.9372°W)
Time: 15:22:31
(UTC+00:00)

Courier 1B Rocket - Visible Passes

Search period start: 25 January 2021 00:00
Search period end: 04 February 2021 00:00
Orbit: 920 x 1202 km, 28.2° (Epoch: 25 January)

Date Brightness Start Highest point End Pass type
(mag) Time Alt. Az. Time Alt. Az. Time Alt. Az.
25 Jan 7.3 10:04:42 10° S 10:07:25 13° SSE 10:10:11 10° SE visible
25 Jan 7.0 11:54:26 10° SW 11:59:50 26° SSE 12:05:32 10° ESE visible
26 Jan 7.0 10:54:13 10° SSW 10:59:01 22° SSE 11:04:03 10° ESE visible
27 Jan 7.0 09:55:39 13° S 09:58:17 17° SSE 10:02:21 10° ESE visible
27 Jan 6.7 11:45:18 10° SW 11:50:48 28° S 11:56:37 10° ESE visible
28 Jan 7.4 08:58:41 12° SE 08:58:41 12° SE 09:00:00 10° SE visible
28 Jan 6.7 10:45:04 11° SW 10:49:59 25° SSE 10:55:20 10° ESE visible
29 Jan 6.6 09:48:01 20° S 09:49:13 21° SSE 09:53:56 10° ESE visible
29 Jan 6.5 11:36:20 10° SW 11:41:48 29° S 11:47:34 10° ESE visible
30 Jan 7.3 08:50:55 13° SE 08:50:55 13° SE 08:52:19 10° ESE visible
30 Jan 6.4 10:37:17 16° SW 10:40:59 27° S 10:46:27 10° ESE visible
31 Jan 6.4 09:40:09 24° S 09:40:14 24° SSE 09:45:16 10° ESE visible
31 Jan 6.5 11:27:31 10° WSW 11:32:50 28° S 11:38:25 10° SE visible
01 Feb 7.3 08:42:57 13° SE 08:42:57 13° SE 08:43:59 10° ESE visible
01 Feb 6.3 10:29:19 21° SW 10:32:02 28° S 10:37:28 10° ESE visible
02 Feb 6.4 09:32:07 25° SSE 09:32:07 25° SSE 09:36:27 10° ESE visible
02 Feb 6.5 11:18:49 10° WSW 11:23:52 25° S 11:29:08 10° SE visible
03 Feb 7.5 08:34:53 12° ESE 08:34:53 12° ESE 08:35:23 10° ESE visible
03 Feb 6.2 10:21:15 23° SSW 10:23:05 27° S 10:28:22 10° SE visible
